Location: Unspecified
(64.9000°N, 0.0000°E)
Time: 03:28:41
(UTC+00:00)

Transit 2A Rocket - Pass Details

Date: 22 June 2019
Orbit: 588 x 915 km, 66.7° (Epoch: 18 July)

Event Time Altitude Azimuth Distance (km) Brightness Sun altitude
Rises 12:14:21 0° 233° (SW) 3,534 8.8 48.5°
Reaches altitude 10° 12:16:55 10° 232° (SW) 2,576 8.3 48.5°
Maximum altitude 12:22:55 74° 149° (SSE) 901 6.6 48.4°
Drops below altitude 10° 12:28:31 10° 65° (ENE) 2,414 7.5 48.3°
Sets 12:30:52 0° 64° (ENE) 3,298 8.0 48.3°
